User: anonymous   Login
Location: Stull Observatory
(42.2506°N, 77.7903°W)
Time: 22:52:43
(UTC-04:00)
Language:

Abrixas rocket - Orbit

View from above orbital plane
View from above orbital plane
View from above satellite
View from above satellite

Ground track
Ground track

The orbit data is extracted from the following two-line orbital elements,

1 25723U 99022C   16125.52587285  .00007899  00000-0  15613-3 0  9990
2 25723  48.4177 176.4047 0012246 236.5430 229.2706 15.47909126943063
Epoch (UTC): 04 May 2016 12:37:15
Eccentricity: 0.0012246
inclination: 48.4177°
perigee height: 414 km
apogee height: 431 km
right ascension of ascending node: 176.4047°
argument of perigee: 236.5430°
revolutions per day: 15.47909126
mean anomaly at epoch: 229.2706°
orbit number at epoch: 94306

The dashed part of the orbit path shows where the satellite is in the earth's shadow,  

DLR